CZ-6A DEB, 60794

Orbit data source: Space-Track

CZ-6A DEB, 60794 is space debris in LEO originally from a launch on Tue, 06 Aug 2024 UTC launched from the Taiyaun Space Center, China (TSC). Debris objects in space refer to the collection of defunct objects orbiting the Earth. Examples of debris include non-operational satellites, rocket bodies, and fragments generated from explosions, collisions, or faulty payload assembly.

Loading next visibility...
Identifier
60794, 2024-140FV
Orbit
LEO
Country
Flag of CNCN / PRC
Related business
Manufacturer
SAST
Mission
Spacecraft
Bus & Motor
Unknown
Mass
Unknown
Launch date (UTC)
2024-08-06 (2 years ago)
Launch vehicle
Unknown
Launch site
Taiyaun Space Center, China (TSC)
Object type
Payload
Rocket body
Debris
Shape & HBR
Unknown shape, 0.1 m
Radar Cross Section
Medium (>0.1 m² and <1 m²)

Expand to show TLE details & history
Last TLE update: 1 day ago

TLE from 1 day ago
0 CZ-6A DEB
1 60794U 24140FV  26170.74575096  .00964771  00000-0  96440-2 0  9995
2 60794  88.9837 267.2740 0015342 245.6607 114.3060 15.62954737 99321
Epoch: 2026-06-19T17:53Z
TLE epoch observation values (Epoch: 2026-06-19T17:53:52.882Z)
Latitude
-0.00009°
Longitude
90.83334°
Altitude
386.664 km
Speed
7.676 km/s
True Right ascension
17h 49m 05s
True Declination
0° 00' 00"
Sunlit
Object was in full shadow at epoch
Visualization orbit readout
Latitude
Unknown
Longitude
Unknown
Altitude
Unknown
Speed
Unknown
Apparent Right ascension
Unknown
Apparent Declination
Unknown
Sunlit
N/A
Visualization observer readout
Local Sidereal Time
07:23:25
Azimuth
Unknown
Elevation
Unknown
Doppler factor
Unknown
Orbital elements
Apogee altitude
386.239 km
Perigee altitude
365.515 km
Semi-major axis
6,754.014 km
Eccentricity
0.00153
Inclination
88.9837°
RAAN
267.274°
Arg. of periapsis
245.6607°
True anomaly
114.4661°
Mean anomaly
114.306°
Eccentric anomaly
114.38606°
Mean motion
3.91021 °/min
Orbital period
92.07 mins
BSTAR
0.009644
Loading maneuver chart data...
Computing Atmospheric mass density...
Loading historical data...
Loading historical data...
Loading historical data...
Loading historical data...
Loading historical data...
Loading historical data...
Loading historical data...

Documentation

Showing up to 5 results
|